SES-20

Last updated on Wed Sep 09 2026 00:03:03 GMT+0000 (Coordinated Universal Time)

1 53960U 22123A 26250.56930478 -.00000121 00000+0 00000+0 0 9993 2 53960 0.0183 94.9277 0001644 17.9428 335.6286 1.00272654 14354
UTC large
Height (km)
Speed (km/s)
/
Latitude / Longitude
Inclination (degrees)
Orbital Period (minutes)
Azimuth
Elevation
Range (km)
Doppler Factor

Next 0 passes for location: London (51.5072 / 0.1276)

No passes found over London.
SES-20